www.pogodaiklimat.ru

Погода и климат >> Архив погоды >> Пакистан >> Dera Ismail Khan


ПОГОДА в Dera Ismail Khan

  • Прогноз погоды в Dera Ismail Khan
  • Монитор погоды в Dera Ismail Khan
  • Климат города

АРХИВ ПОГОДЫ в Dera Ismail Khan

Время (UTC), дата Ветер
(напр.,м/с)
 
Видим.   Явления Облачность Т
(С)
Тd
(С)
f
(%)
Тe
(С)
Тes
(С)
Комфортность P
(гПа)
Po
(гПа)
Тmin
(С)
Tmax
(С)
R
(мм)
R24
(мм)
S
(см)
21 10.10 штиль 0 4000 м ясно +26.0 +22.3 80 +34 +34 очень
душно
1005.4 983.0
00 11.10 ЮВ 1 4000 м ясно +23.5 +21.2 87 +30 +30 очень
душно
1005.3 985.7
03 11.10 штиль 0 10 км ясно +25.0 +20.5 76 +31 +33 очень
душно
1006.0 986.5 +22.5
06 11.10 ЮВ 1 10 км ясно +31.0 +23.9 66 +43 +57 опасность
перегрева
1007.9 988.7
09 11.10 ЮВ 1 10 км ясно +36.0 +23.2 48 +46 +58 опасность
перегрева
1005.5 1006.0
12 11.10 штиль 0 10 км ясно +35.0 +23.7 52 +46 +47 опасность
перегрева
1004.5 1011.8 +37.2
15 11.10 штиль 0 4000 м ясно +29.0 +22.4 68 +38 +38 очень
душно
1006.2 1006.0
18 11.10 ЮВ 1 4000 м ясно +26.5 +21.3 73 +34 +34 очень
душно
1007.7 988.3
21 11.10 штиль 0 4000 м ясно +25.5 +20.2 73 +31 +31 очень
душно
1007.3 984.5
00 12.10 ЮВ 1 4000 м ясно +23.0 +19.9 83 +30 +30 очень
душно
1006.7 987.1
03 12.10 штиль 0 10 км ясно +23.0 +20.7 87 +30 +33 очень
душно
1008.0 988.3 +21.5
06 12.10 штиль 0 10 км ясно +32.0 +24.2 63 +44 +59 опасность
перегрева
1008.2 989.0
09 12.10 ЮВ 1 10 км ясно +36.0 +23.2 48 +46 +58 опасность
перегрева
1005.4 1005.0
12 12.10 штиль 0 10 км ясно +35.0 +20.2 42 +41 +42 опасность
перегрева
1003.9 985.0 +36.1
15 12.10 штиль 0 4000 м ясно +28.5 +20.2 61 +35 +35 очень
душно
1004.5 1000.0
18 12.10 штиль 0 4000 м ясно +27.0 +20.2 66 +33 +33 очень
душно
1006.0 1009.8
21 12.10 штиль 0 4000 м ясно +25.5 +20.2 73 +31 +31 очень
душно
1006.8 1007.0
00 13.10 штиль 0 4000 м ясно +22.0 +18.9 83 +27 +27 душно 1004.2 984.5
03 13.10 штиль 0 10 км ясно +22.0 +18.9 83 +27 +30 душно 1005.3 985.6 +21.1
06 13.10 штиль 0 10 км ясно +31.5 +18.5 46 +36 +51 опасность
солнечного
удара
1005.5 986.4
09 13.10 штиль 0 10 км ясно +34.5 +17.6 37 +38 +51 опасность
солнечного
удара
1002.9 1003.0
12 13.10 ЮВ 1 10 км ясно +35.0 +21.1 44 +42 +43 опасность
перегрева
1001.1 1008.2 +36.1
15 13.10 штиль 0 4000 м ясно +28.0 +19.6 60 +34 +34 очень
душно
1002.4 1002.0
18 13.10 штиль 0 4000 м ясно +26.0 +19.9 69 +32 +32 очень
душно
1004.0 984.6
21 13.10 штиль 0 4000 м ясно +24.5 +19.9 76 +30 +30 очень
душно
1003.6 980.6
00 14.10 штиль 0 4000 м ясно +23.0 +18.3 75 +29 +29 очень
душно
1002.9 983.3
03 14.10 штиль 0 10 км ясно +22.0 +18.0 78 +27 +29 душно 1005.9 986.2 +20.5
06 14.10 ЮВ 1 10 км ясно +29.5 +19.7 56 +36 +49 очень
душно
1006.7 987.5
09 14.10 штиль 0 10 км ясно +35.0 +18.3 37 +39 +52 опасность
солнечного
удара
1003.1 1003.0
12 14.10 штиль 0 10 км ясно +34.0 +18.9 41 +39 +40 очень
душно
1001.9 1006.8 +36.1
15 14.10 штиль 0 4000 м ясно +28.0 +19.6 60 +34 +34 очень
душно
1001.6 1000.0
18 14.10 штиль 0 4000 м ясно +26.0 +19.9 69 +32 +32 очень
душно
1003.3 983.9
21 14.10 штиль 0 4000 м ясно +24.5 +19.9 76 +30 +30 очень
душно
1004.0 981.2
00 15.10 штиль 0 4000 м ясно +22.0 +17.2 74 +26 +26 душно 1004.1 984.4
03 15.10 штиль 0 10 км ясно +21.5 +17.5 78 +26 +28 душно 1005.4 985.7 +20.5
06 15.10 штиль 0 10 км ясно +29.0 +18.2 52 +34 +48 очень
душно
1006.0 986.8
09 15.10 штиль 0 10 км ясно +35.0 +20.2 42 +41 +54 опасность
перегрева
1003.5 1004.0
12 15.10 штиль 0 10 км ясно +34.5 +17.6 37 +38 +39 очень
душно
1001.6 1009.8 +35.5
15 15.10 штиль 0 4000 м ясно +28.0 +17.9 54 +32 +32 душно 1004.4 1004.0
18 15.10 штиль 0 4000 м ясно +27.0 +20.2 66 +33 +33 очень
душно
1005.7 986.4
21 15.10 штиль 0 4000 м ясно +25.5 +20.2 73 +31 +31 очень
душно
1006.2 983.2
00 16.10 штиль 0 4000 м ясно +22.5 +18.6 79 +28 +28 душно 1006.2 986.6
03 16.10 штиль 0 10 км ясно +22.5 +18.6 79 +28 +30 душно 1008.1 988.5 +21.0
06 16.10 штиль 0 10 км ясно +30.5 +20.0 53 +37 +51 опасность
солнечного
удара
1008.5 989.3
09 16.10 штиль 0 10 км ясно +35.5 +14.8 29 +37 +49 душно 1005.8 984.0
12 16.10 штиль 0 10 км ясно +35.0 +18.3 37 +39 +40 очень
душно
1004.0 985.1 +36.5
15 16.10 штиль 0 4000 м ясно +27.0 +17.6 56 +31 +31 душно 1004.8 1005.0
18 16.10 ЮВ 1 4000 м дым ясно +25.0 +18.8 68 +30 +30 душно 1006.5 987.0
00 17.10 В 1 4000 м дым ясно +22.0 +17.2 74 +26 +26 душно 1006.4 986.7
03 17.10 ЮВ 1 4000 м дым ясно +21.5 +17.5 78 +26 +27 душно 1008.1 988.3 +20.5
06 17.10 штиль 0 4000 м ясно +32.0 +19.1 46 +37 +51 опасность
солнечного
удара
1009.2 990.0
09 17.10 ЮВ 1 4000 м ясно +35.0 +16.3 33 +38 +48 очень
душно
1006.7 1007.0
12 17.10 штиль 0 4000 м ясно +34.0 +20.8 46 +41 +42 опасность
перегрева
1004.9 985.9 +37.1
15 17.10 штиль 0 4000 м ясно +28.0 +18.8 57 +33 +33 очень
душно
1006.5 1000.0

 

Местоположение метеостанции Dera Ismail Khan (Пакистан): широта 31.82 долгота 70.92 высота над уровнем моря 173 м.

В архиве по умолчанию представлена погода в Dera Ismail Khan за последнюю неделю. Архивные данные за месяц целиком и за предыдущие месяцы, начиная с января 2011 года, Вы можете получить, выбрав интересующий диапазон дат из раскрывающегося списка и нажав кнопку "Ввод!".

Внимание! Время в таблицах - всемирное. Для получения местного времени необходимо прибавить поправку, которая в Dera Ismail Khan равна 5 ч.

Смотрите также архив погоды в соседних городах и на ближайших метеорологических станциях:

Погода в Zhob (Пакистан) (147 км)
Погода в Sargodha (Пакистан) (167 км)
Погода в Multan (Пакистан) (187 км)
Погода в Faisal Abad (Пакистан) (211 км)
Погода в Parachinar (Пакистан) (241 км)
Погода в Barkhan (Пакистан) (244 км)
Погода в Peshawar (Пакистан) (252 км)
Погода в Risalpur (Пакистан) (270 км)
Погода в Bahawalpur (Пакистан) (281 км)
Погода в Islamabad (Пакистан) (286 км)

Пояснения к столбцам:

Ветер - указаны скорость ветра в м/с - средняя за 10 мин, порывы в срок и между сроками (в фигурных скобках) и направление, откуда дует ветер: С - северный, СВ - северо-восточный, В - восточный, ЮВ - юго-восточный, Ю - южный, ЮЗ - юго-западный, З - западный, СЗ - северо-западный.
Видимость - горизонтальная дальность видимости в метрах или километрах. При видимости от 1 до 10 км при отсутствии осадков обычно наблюдается дымка, при ухудшении видимости до 1 км и менее - туман. В сухую погоду видимость может ухудшаться дымом, пылью или мглою.
Явления - указаны атмосферные явления, наблюдавшиеся в срок или в последний час перед сроком; фигурными скобками обозначены явления, наблюдавшиеся между сроками (за 1-3 часа до срока); квадратными скобками обозначены град или гололедные отложения с указанием их диаметра в мм.
Облачность - указаны через наклонную черту общая и нижняя облачность в баллах и высота нижней границы облаков в метрах; квадратными скобками обозначены формы облаков: Ci - перистые, Cs - перисто-слоистые, Cc - перисто-кучевые, Ac - высококучевые, As - высокослоистые, Sc - слоисто-кучевые, Ns - слоисто-дождевые, Cu - кучевые, Cb - кучево-дождевые. Подробнее классификацию облаков см. в Атласе облаков (PDF).
T - Температура воздуха - температура, измеренная на высоте 2 м над землей.
Td - Температура точки росы - температура, при понижении до которой содержащийся в воздухе водяной пар достигнет насыщения.
f - Относительная влажность воздуха - влажноcть воздуха, измеренная на высоте 2 м над землей.
Te - Эффективная температура - температура, которую ощущает одетый по сезону человек в тени. Характеристика душности погоды. При расчете учитывается влияние влажности воздуха и скорости ветра на теплоощущения человека.
Tes - Эффективная температура на солнце - температура, которую ощущает человек, с поправкой на солнечный нагрев. Характеристика знойности погоды. Зависит от высоты солнца над горизонтом, облачности и скорости ветра. Ночью, в пасмурную погоду, а также при ветре 12 м/с и более поправка равна нулю.
P - Атмосферное давление - приведенное к уровню моря атмосферное давление.
Po - Атмосферное давление - измеренное на уровне метеостанции атмосферное давление.
Tmin - Минимальная температура - минимум температуры воздуха на высоте 2 м над землей.
Tmax - Максимальная температура - максимум температуры воздуха на высоте 2 м над землей.
R - Количество осадков - Количество выпавших осадков за период времени, мм. При наведении курсора мыши на число - период времени, за который выпало указанное количество осадков.
R24 - Количество осадков - Количество выпавших осадков за 24 часа, мм.
S - Снежный покров - Высота снежного покрова, см. При наведении курсора мыши на число - состояние снежного покрова и степень покрытия местности в баллах.